Regional Weather Roundup
Issued by NWS

Home | Current Version | Previous Version | Text Only | Print | Product List | Glossary On
Versions: 1 2 3 4 5 6 7 8 9 10 11 12 13 14 15 16 17 18 19 20 21 22 23 24 25 26 27 28 29 30 31 32 33 34 35 36 37 38 39 40 41 42 43 44 45 46 47 48 49 50
467
ASUS43 KMKX 050621
RWRWI

WISCONSIN REGIONAL WEATHER ROUNDUP
NATIONAL WEATHER SERVICE MILWAUKEE/SULLIVAN WI
100 AM CDT THU MAY 05 2016

NOTE: "FAIR" INDICATES FEW OR NO CLOUDS BELOW 12,000 FEET WITH NO
SIGNIFICANT WEATHER AND/OR OBSTRUCTIONS TO VISIBILITY.

WIZ001-002-006>008-014>016-023>028-050700-
NORTHWEST WISCONSIN

CITY           SKY/WX    TMP DP  RH WIND       PRES   REMARKS
SUPERIOR ARPT  CLEAR     31  31  99 CALM      30.02R
6HR MIN TEMP:  30; 6HR MAX TEMP:  49;

ASHLAND        CLEAR     29  28  96 NW5       30.02R WCI  24
6HR MIN TEMP:  29; 6HR MAX TEMP:  50;

HAYWARD        CLEAR     32  27  81 NE3       30.00R
6HR MIN TEMP:  32; 6HR MAX TEMP:  57;

SIREN          CLEAR     38  26  62 CALM      30.00R
6HR MIN TEMP:  37; 6HR MAX TEMP:  62;

CUMBERLAND     CLEAR     37  30  75 CALM      30.00R
RICE LAKE      CLEAR     38  33  84 CALM      30.01S
6HR MIN TEMP:  38; 6HR MAX TEMP:  61;

CHETEK         CLEAR     37  30  77 E6        30.00S WCI  32
6HR MIN TEMP:  37; 6HR MAX TEMP:  59;

LADYSMITH      CLEAR     34  30  85 CALM      30.02R
6HR MIN TEMP:  34; 6HR MAX TEMP:  55;

EAU CLAIRE     CLEAR     40  29  64 CALM      29.99S
6HR MIN TEMP:  40; 6HR MAX TEMP:  61;

MENOMONIE      CLEAR     39  23  52 CALM      30.00S
6HR MIN TEMP:  39; 6HR MAX TEMP:  63;

NEW RICHMOND   CLEAR     45  24  45 CALM      30.00S
6HR MIN TEMP:  43; 6HR MAX TEMP:  63;

OSCEOLA        CLEAR     41  31  66 CALM      30.02S
6HR MIN TEMP:  41; 6HR MAX TEMP:  64;

$$

WIZ003>005-009-010-017-018-050700-
NORTH CENTRAL WISCONSIN

CITY           SKY/WX    TMP DP  RH WIND       PRES   REMARKS
MANITOWISH WTR CLEAR     30  30 100 CALM      29.99S FOG
6HR MIN TEMP:  28; 6HR MAX TEMP:  48;

ARBOR VITAE    CLEAR     32  28  85 CALM      29.99S
6HR MIN TEMP:  32; 6HR MAX TEMP:  49;

WOODRUFF       CLEAR     32  28  85 CALM      29.99S
6HR MIN TEMP:  32; 6HR MAX TEMP:  49;

RHINELANDER    CLEAR     35  30  82 CALM      29.99R
6HR MIN TEMP:  33; 6HR MAX TEMP:  48;

EAGLE RIVER    CLEAR     29  29 100 CALM      29.98S
LAND O LAKES   CLEAR     29  29  98 CALM      30.00R
6HR MIN TEMP:  28; 6HR MAX TEMP:  45;

PHILLIPS       CLEAR     32  30  95 E3        29.99R
6HR MIN TEMP:  31; 6HR MAX TEMP:  50;

TOMAHAWK       CLEAR     28  26  93 CALM      30.00R
6HR MIN TEMP:  28; 6HR MAX TEMP:  49;

MEDFORD        CLEAR     36  31  82 N3        29.98S
6HR MIN TEMP:  36; 6HR MAX TEMP:  51;

MERRILL        CLEAR     34  31  92 CALM      29.99S
$$

WIZ029-030-035-036-043>047-050700-
CENTRAL WISCONSIN

CITY           SKY/WX    TMP DP  RH WIND       PRES   REMARKS
WAUSAU         CLEAR     41  32  70 CALM      29.96S
6HR MIN TEMP:  41; 6HR MAX TEMP:  53;

MOSINEE        CLEAR     36  32  87 N3        29.99S
MARSHFIELD     CLEAR     41  31  67 N6        29.97S
6HR MIN TEMP:  41; 6HR MAX TEMP:  55;

STEVENS POINT  PTCLDY    34  30  85 CALM      29.98S
6HR MIN TEMP:  34; 6HR MAX TEMP:  51;

WAUPACA        CLEAR     42  32  67 N3        29.98S
6HR MIN TEMP:  42; 6HR MAX TEMP:  56;

WAUTOMA        CLEAR     38  32  79 CALM      29.98S
6HR MIN TEMP:  38; 6HR MAX TEMP:  55;

WISC RAPIDS    CLEAR     40  30  67 NE6       29.99R
6HR MIN TEMP:  40; 6HR MAX TEMP:  55;

CAMP DOUGLAS   CLEAR     38  38  99 CALM      29.98R
6HR MIN TEMP:  38; 6HR MAX TEMP:  57;

$$

WIZ011>013-019>022-031-037>040-048>050-050700-
NORTHEAST WISCONSIN

CITY           SKY/WX    TMP DP  RH WIND       PRES   REMARKS
ANTIGO         CLEAR     35  31  86 CALM      29.98R
6HR MIN TEMP:  33; 6HR MAX TEMP:  46;

SHAWANO        CLEAR     41  33  73 N6        29.98F
6HR MIN TEMP:  41; 6HR MAX TEMP:  52;

OCONTO         CLEAR     37  32  84 N5        29.97F WCI  33
6HR MIN TEMP:  37; 6HR MAX TEMP:  47;

STURGEON BAY   CLEAR     39  30  70 N14       29.98S WCI  31
6HR MIN TEMP:  37; 6HR MAX TEMP:  45;

GREEN BAY      CLEAR     37  31  78 N6        29.97S WCI  32
6HR MIN TEMP:  37; 6HR MAX TEMP:  50;

MANITOWOC      CLEAR     39  32  76 NW9       29.96R WCI  33
6HR MIN TEMP:  39; 6HR MAX TEMP:  48;

APPLETON       CLEAR     36  30  80 N9        29.95S WCI  29
CLINTONVILLE   CLEAR     39  32  75 N6        29.98S WCI  35
OSHKOSH        CLEAR     40  31  70 N10       29.96R WCI  33
6HR MIN TEMP:  40; 6HR MAX TEMP:  51;

$$

WIZ032>034-041-042-053>061-050700-
SOUTHWEST WISCONSIN

CITY           SKY/WX    TMP DP  RH WIND       PRES   REMARKS
LA CROSSE      CLEAR     48  30  49 N5        29.99R
6HR MIN TEMP:  48; 6HR MAX TEMP:  63;

SPARTA         CLEAR     35  30  83 CALM      30.00R
6HR MIN TEMP:  34; 6HR MAX TEMP:  60;

VIROQUA        CLEAR     44  32  63 NE8       29.98R
6HR MIN TEMP:  44; 6HR MAX TEMP:  59;

BOSCOBEL       CLEAR     46  33  60 CALM      29.98R
6HR MIN TEMP:  46; 6HR MAX TEMP:  63;

PRAIRIE DU CHI CLEAR     44  30  58 CALM      29.98S
6HR MIN TEMP:  44; 6HR MAX TEMP:  62;

PLATTEVILLE    CLEAR     44  34  68 N12       29.95S
6HR MIN TEMP:  44; 6HR MAX TEMP:  60;

$$

WIZ056-057-062-063-064-067-068-050700-
SOUTH CENTRAL WISCONSIN

CITY           SKY/WX    TMP DP  RH WIND       PRES   REMARKS
REEDSBURG      CLEAR     44  32  62 NE5       29.97R
6HR MIN TEMP:  44; 6HR MAX TEMP:  58;

BARABOO/DELLS  CLEAR     44  31  62 N6        29.96S
6HR MIN TEMP:  44; 6HR MAX TEMP:  59;

LONE ROCK      CLEAR     48  32  53 N9        29.97S
6HR MIN TEMP:  47; 6HR MAX TEMP:  61;

MINERAL POINT  PTCLDY    45  32  61 N7        29.95S
MADISON        CLEAR     41  33  73 N10       29.95R
6HR MIN TEMP:  40; 6HR MAX TEMP:  57;

MIDDLETON      CLEAR     42  36  76 NE5       29.96S
6HR MIN TEMP:  42; 6HR MAX TEMP:  60;

WATERTOWN      CLEAR     40  33  77 N7        29.94S
6HR MIN TEMP:  40; 6HR MAX TEMP:  54;

MONROE         CLEAR     41  36  81 N8        29.94R
JANESVILLE     CLEAR     45  34  65 N8        29.93S
$$

WIZ051-052-058>065-066-070>072-050700-
SOUTHEAST WISCONSIN

CITY           SKY/WX    TMP DP  RH WIND       PRES   REMARKS
MILWAUKEE      MOCLDY    42  33  70 N18G24    29.92S
6HR MIN TEMP:  40; 6HR MAX TEMP:  43;

WAUKESHA       PTCLDY    36  32  87 N7        29.94S WCI  30
MILWAUKEE/TIMM PTCLDY    37  32  81 N10       29.94S WCI  30
RACINE         MOCLDY    42  34  73 N18G26    29.93R
6HR MIN TEMP:  41; 6HR MAX TEMP:  42;

BURLINGTON     CLEAR     36  32  86 N5        29.92S WCI  32
6HR MIN TEMP:  36; 6HR MAX TEMP:  46;

KENOSHA        CLOUDY    42  34  73 N16G23    29.91R
6HR MIN TEMP:  40; 6HR MAX TEMP:  44;

FOND DU LAC    CLEAR     42  33  70 N17G23    29.96S
6HR MIN TEMP:  42; 6HR MAX TEMP:  51;

SHEBOYGAN      CLEAR     39  31  72 N10       29.95R WCI  32
6HR MIN TEMP:  37; 6HR MAX TEMP:  45;

WEST BEND      PTCLDY    37  32  81 N7        29.94S WCI  32
JUNEAU         CLEAR     40  33  78 N10       29.96R WCI  33
6HR MIN TEMP:  39; 6HR MAX TEMP:  53;

$$

LSZ147-162-050700-
LAKE SUPERIOR

STATION/POSITION TIME  TEMP    WIND        PRES    WAVE
                       AIR SEA DIR/SP/G            HT/PER
                 (UTC) (F)     (DEG/KT/KT) (MB)    (FT/S)
W MID LAKE BUOY  0550   36 35  360/  4/  4 1017.4S   1/ 5
DEVILS ISLAND    0600   40      90/  4/  5 1017.3R
PORT WING        0540   35     130/  2/  4 1016.6R
SAXON HARBOR     0500   32     190/  3/  4 1015.6S
$$

LMZ867-665-643>646-050700-
LAKE MICHIGAN

STATION/POSITION TIME  TEMP    WIND        PRES    WAVE
                       AIR SEA DIR/SP/G            HT/PER
                 (UTC) (F)     (DEG/KT/KT)C1F1C2F2C3F3C4F4C5F5C6F6C7F7C8M1C9M2Ca!



USA.gov is the U.S. government's official web portal to all federal, state and local government web resources and services.